Hourly Data Report for October 07, 2013

All times are specified in Local Standard Time (LST). Add 1 hour to adjust for Daylight Saving Time where and when it is observed.

ST LEONARD CS
NEW BRUNSWICK

47°09'28.050" N
67°49'55.014" W
245.00 m
810I001
71019
WIY

Download Data

Hourly Data (October 2013)
Hourly Data Report for October 7, 2013
Temp Definition
°C
Dew Point Temp Definition
°C
Rel Hum Definition
%
Wind Dir Definition
10's deg

Wind Spd Definition
km/h
Visibility Definition
km
Stn Press Definition
kPa
Hmdx Definition


Wind Chill Definition


Weather Definition


TIME
00:00 7.3 3.8 78 14 11   99.25     LegendNANA
01:00 7.9 4.0 76 15 17   99.26     LegendNANA
02:00 8.2 3.5 72 15 19   99.18     LegendNANA
03:00 7.9 3.4 73 15 22   99.15     LegendNANA
04:00 6.9 4.0 82 16 30   99.13     LegendNANA
05:00 5.8 4.9 94 16 28   99.06     LegendNANA
06:00 6.2 5.4 95 16 22   99.06     LegendNANA
07:00 6.7 5.7 93 16 22   99.03     LegendNANA
08:00 7.1 5.0 86 16 22   99.01     LegendNANA
09:00 8.1 5.7 85 16 26   98.96     LegendNANA
10:00 9.1 7.1 87 16 26   98.91     LegendNANA
11:00 10.2 8.3 88 16 35   98.82     LegendNANA
12:00 10.7 8.8 88 16 28   98.75     LegendNANA
13:00 11.6 9.7 88 16 30   98.63     LegendNANA
14:00 12.1 10.5 90 16 32   98.51     LegendNANA
15:00 13.1 11.4 89 17 30   98.43     LegendNANA
16:00 13.6 12.0 90 16 33   98.30     LegendNANA
17:00 13.7 12.8 94 16 32   98.20     LegendNANA
18:00 14.6 13.7 94 16 32   98.08     LegendNANA
19:00 15.1 14.2 94 16 37   97.97     LegendNANA
20:00 15.9 14.8 93 16 43   97.82     LegendNANA
21:00 17.2 15.8 91 17 43   97.73     LegendNANA
22:00 17.8 16.0 89 17 43   97.62     LegendNANA
23:00 17.3 16.5 95 20 26   97.60     LegendNANA

Notes on Data Quality.

Legend

  • E = Estimated
  • M = Missing
  • NA = Not Available
  • ‡ = Partner data that is not subject to review by the National Climate Archives
Date modified: